RH
37 58 82 66 60 67 65 81 87 82 83 75 74 72 67 64 53 52 59 47 55 81 72 58 55 52 50 44 40 35 26 19 19 24 28 30 30 30 31 34 46 54 59 59 52 51 61 79 72 56 69 70 72 82 80 74 62 55 52 50 54 63 67 65 62 58 54 43 33 29 30 34 40 50 55 54 51 49 48 45 42 29 25 38 34 26 35 37 34 36 30 36 51 73 101 103 101
38 52 81 70 74 86 76 88 84 75 76 71 74 69 78 84 72 67 62 51 50 71 76 61 56 55 55 51 45 40 32 25 20 18 19 25 29 28 29 27 30 37 39 45 45 47 55 59 54 48 49 52 61 64 60 57 51 48 48 49 51 57 60 60 57 54 47 35 30 30 35 42 49 58 59 54 50 49 48 40 34 25 22 32 34 29 37 38 34 35 32 46 60 69 90 101 102
41 54 74 73 87 93 71 68 65 72 71 67 74 70 92 96 82 86 70 53 46 59 76 64 57 58 59 58 50 45 38 30 24 21 19 18 22 25 29 30 28 30 30 30 32 35 39 40 42 40 39 46 53 54 53 49 47 49 51 53 54 57 61 61 56 48 38 32 34 35 41 50 56 61 58 52 48 50 46 34 30 23 19 38 50 44 45 39 31 32 34 57 68 71 86 100 102
38 54 66 74 94 96 71 56 54 64 62 62 72 71 88 89 75 84 76 57 40 51 79 71 59 60 61 62 55 48 45 39 31 24 23 20 18 20 23 28 32 34 38 37 32 30 29 30 32 33 35 39 46 49 49 50 54 59 63 64 63 65 67 61 49 40 36 38 41 41 45 50 53 55 53 48 47 50 44 32 30 25 31 58 60 48 51 38 30 32 34 58 69 80 96 102 102
31 49 62 73 96 104 88 75 64 57 54 57 70 75 75 76 74 79 81 64 40 51 82 81 65 60 62 68 64 53 49 46 39 31 26 26 22 19 19 19 24 30 39 49 51 49 45 43 39 36 35 35 41 45 51 60 66 69 71 69 67 65 59 50 41 41 43 45 45 45 48 47 46 50 50 48 47 49 44 36 31 29 42 60 49 36 43 34 30 32 32 53 63 69 90 101 103
23 41 60 72 88 98 97 97 81 62 61 63 75 85 74 69 74 86 94 68 42 56 84 90 76 63 62 73 74 59 52 52 46 41 31 27 28 23 22 19 17 19 23 32 43 51 56 58 58 56 53 52 54 60 70 75 73 69 66 61 57 52 46 42 41 43 43 42 43 47 53 53 50 49 49 48 48 49 47 41 33 30 35 42 37 28 30 35 53 54 36 46 60 54 71 100 100
18 31 50 62 77 82 88 100 90 76 72 71 85 91 81 71 66 85 92 64 44 60 89 94 83 68 60 71 81 67 55 58 52 47 41 29 30 27 24 23 20 18 18 18 22 28 36 43 50 58 64 69 74 75 74 68 60 53 48 46 42 40 38 37 36 34 33 33 35 40 49 56 56 52 51 50 51 51 49 43 33 29 28 26 24 21 21 39 74 73 44 43 52 48 69 99 76
18 23 34 42 57 61 73 98 92 84 79 77 96 96 85 73 64 79 76 61 50 58 94 96 83 74 63 68 79 76 60 62 58 49 50 37 31 31 26 26 23 21 20 19 18 18 20 22 26 33 42 48 52 50 45 40 38 35 33 32 30 30 29 27 27 26 27 28 28 30 34 41 47 49 51 50 50 48 42 36 28 25 23 20 19 19 20 38 64 58 47 49 41 41 69 90 53
19 22 28 29 37 39 55 92 90 78 80 83 98 96 87 77 68 77 73 71 60 59 97 96 78 75 71 71 73 80 70 64 64 54 55 49 36 32 31 28 25 23 22 23 22 22 20 20 20 19 21 22 24 23 24 24 24 25 24 24 24 24 24 24 25 25 26 26 26 27 26 28 30 33 36 37 36 33 29 26 22 21 19 18 18 18 18 30 51 45 46 53 39 41 61 85 67
20 22 27 25 26 27 41 75 78 64 72 86 98 97 97 93 79 77 76 80 67 63 95 91 73 71 74 80 73 76 75 68 68 60 57 59 49 35 34 32 28 24 19 22 22 23 24 24 25 24 23 21 20 19 19 20 20 21 20 21 22 21 23 23 23 24 25 25 25 26 27 27 27 28 28 27 27 26 24 23 21 20 18 17 17 17 18 23 33 32 38 51 49 52 63 90 95
20 19 21 23 22 23 31 52 65 59 65 86 99 100 100 98 89 80 74 78 70 64 88 92 75 70 76 88 81 71 70 70 70 66 56 61 63 45 36 35 32 29 20 18 19 21 24 26 28 28 29 28 28 27 25 25 24 25 25 27 28 30 31 32 33 34 35 36 37 38 38 38 38 38 37 37 35 34 31 28 25 21 19 17 18 17 19 22 23 35 49 53 58 69 78 96 107
17 17 18 21 21 21 24 39 63 66 60 74 90 99 99 93 95 89 76 74 68 58 75 89 79 72 75 87 90 75 66 69 68 67 59 56 68 61 43 37 35 33 27 21 20 22 23 25 28 30 32 34 35 36 37 36 35 35 36 39 42 46 49 52 54 55 58 58 59 60 61 60 59 56 53 49 45 44 41 37 31 24 21 17 20 18 18 23 21 44 67 65 69 79 84 95 103
14 16 18 18 19 18 20 28 45 58 53 52 70 97 103 93 96 98 86 75 71 66 71 79 76 68 64 78 93 82 69 69 64 64 64 53 63 75 59 45 40 35 33 28 26 26 26 26 27 31 33 36 39 41 45 45 47 47 47 50 53 57 59 63 64 66 68 66 66 64 66 68 68 65 56 51 49 49 48 47 43 31 23 20 20 19 17 23 24 42 67 83 97 86 66 80 88
15 13 16 16 18 17 19 19 25 55 60 37 49 88 104 99 98 96 82 70 79 88 78 69 69 64 57 76 98 90 78 74 65 60 66 57 55 77 77 61 49 40 38 33 32 32 32 33 32 34 34 36 40 43 48 51 54 55 56 58 58 60 61 63 64 65 65 63 61 57 57 57 57 56 49 50 50 46 45 46 47 37 26 21 20 19 18 21 25 34 46 63 89 83 56 65 76
17 14 13 13 16 16 18 17 23 51 55 39 61 91 98 101 98 87 71 62 82 100 92 77 72 65 58 84 105 93 87 82 72 63 65 64 51 61 78 78 64 49 45 40 37 37 37 40 41 42 41 40 42 44 48 52 56 58 60 61 60 61 60 60 59 58 57 56 55 52 52 49 48 47 44 48 45 39 39 38 40 37 28 22 19 19 26 35 40 44 46 45 52 59 59 67 70
17 16 15 13 13 14 16 17 19 29 30 37 74 100 100 101 96 86 74 61 70 92 100 88 76 69 61 86 105 92 95 89 76 69 65 66 55 51 64 82 83 63 55 50 43 43 41 43 45 48 50 50 49 48 49 51 54 57 59 60 61 59 57 58 56 54 55 57 62 63 59 55 53 47 44 47 40 31 32 33 33 33 27 22 22 23 38 63 81 84 80 74 66 68 79 79 66
14 15 19 18 14 12 14 16 20 30 34 28 42 71 85 96 100 95 88 72 67 81 95 92 80 72 61 75 93 88 94 93 81 73 68 67 61 54 53 71 94 84 70 63 53 50 47 46 48 49 52 55 56 55 54 54 55 57 59 60 61 59 56 57 57 58 63 73 81 81 75 70 66 56 47 43 36 30 29 30 29 30 25 21 23 27 37 59 88 102 100 100 97 99 98 77 56
11 14 18 19 17 15 14 14 16 30 39 26 21 34 46 66 83 89 91 86 85 87 85 92 94 78 61 64 81 86 90 92 86 76 70 68 66 64 53 54 81 97 90 78 68 62 57 54 53 54 56 58 60 61 63 62 62 62 61 60 60 60 60 63 67 70 74 83 92 90 79 74 73 63 53 46 42 37 30 28 28 28 24 20 20 23 31 43 66 90 101 99 95 96 81 58 45
8 10 14 20 21 17 17 15 13 22 28 24 22 22 24 35 48 59 72 77 89 101 87 85 96 85 69 67 76 84 87 90 88 81 71 65 67 70 63 50 56 83 99 97 87 77 70 66 60 60 61 63 66 67 70 74 76 75 74 72 70 71 71 72 73 79 83 84 92 90 73 69 74 70 63 59 57 49 37 32 29 27 23 20 21 22 29 36 45 57 67 67 63 62 48 45 51
9 9 14 20 19 18 20 20 15 18 21 20 20 19 21 23 27 35 47 52 60 87 95 87 92 88 77 75 76 76 82 91 91 87 77 66 66 67 67 60 48 56 78 93 98 94 88 82 75 70 67 68 71 74 78 84 90 89 91 90 89 92 92 86 74 71 80 85 92 86 70 69 74 75 75 76 72 60 47 38 30 26 24 20 22 24 26 31 31 31 35 38 39 40 37 49 62
10 13 17 15 13 15 18 21 19 18 19 19 19 18 18 18 22 24 30 40 40 61 88 88 88 94 92 87 81 80 90 99 98 95 88 76 71 70 68 67 56 47 51 61 78 96 103 98 92 87 82 77 75 78 82 88 97 101 102 101 99 103 102 98 87 72 68 83 95 82 67 67 75 83 84 81 73 61 50 39 30 24 22 20 23 26 27 30 29 35 53 62 65 65 65 66 59
8 17 24 18 14 16 16 17 18 19 19 19 19 17 18 16 18 19 20 28 28 40 64 69 70 83 97 101 94 93 101 105 103 99 91 82 76 73 71 69 63 54 48 44 51 75 97 105 102 98 96 94 91 88 88 90 98 104 105 105 102 103 105 102 102 88 66 75 91 80 65 65 80 89 84 80 78 76 58 34 25 21 21 23 25 29 30 32 35 53 85 95 90 89 89 82 62
11 21 26 22 15 13 15 15 14 16 18 19 19 17 17 16 15 17 17 18 19 22 35 50 58 62 73 92 101 101 103 103 101 96 86 79 72 69 70 69 66 62 55 49 47 55 80 102 102 95 92 95 99 94 94 97 100 106 105 106 100 90 94 102 108 96 66 66 83 78 64 67 86 88 81 90 96 98 71 32 22 21 23 27 28 32 32 38 56 76 95 97 91 97 99 94 83
8 14 16 21 18 9 9 11 11 12 14 16 17 17 16 16 15 15 15 17 18 15 18 32 46 50 48 60 85 99 102 101 97 93 83 71 65 64 67 67 69 69 61 56 52 51 76 102 102 93 84 88 99 98 99 102 103 108 103 104 104 83 71 79 89 79 59 62 76 73 62 71 88 84 88 101 100 103 81 36 23 26 24 26 29 27 29 50 82 100 102 89 73 83 93 95 99
6 6 8 15 16 9 7 7 8 9 11 12 12 13 13 14 14 13 13 14 15 15 14 18 28 37 36 35 52 74 86 89 87 82 74 64 60 59 59 61 65 67 63 60 58 55 74 99 104 99 90 93 105 103 103 104 102 104 103 103 100 80 56 49 53 55 55 65 71 63 62 76 84 83 96 103 97 105 91 54 47 51 34 24 28 26 46 75 81 83 84 69 51 59 81 97 103
9 6 7 8 8 7 6 6 6 6 8 9 9 10 11 11 11 10 10 11 12 13 13 14 18 23 28 26 27 41 54 63 69 69 65 58 55 53 50 52 54 55 56 56 59 57 66 89 104 106 100 101 104 103 102 101 100 101 102 98 83 65 49 41 44 52 60 66 64 58 65 78 78 85 98 97 97 104 99 86 86 87 60 37 37 39 64 84 67 60 61 55 52 58 70 84 89
9 7 8 7 6 6 6 6 6 6 6 6 7 8 8 9 9 10 10 9 10 12 13 13 14 16 19 21 19 23 28 37 49 56 58 55 51 49 48 52 52 53 57 59 61 61 66 84 104 109 103 101 102 102 101 100 102 97 89 81 67 52 43 43 50 57 62 62 57 51 62 72 73 88 95 92 99 100 101 102 94 94 87 69 62 59 67 73 69 69 61 47 44 48 51 55 66
7 8 8 7 7 6 6 5 6 6 6 5 6 6 7 7 7 11 12 13 12 11 13 11 12 14 13 15 16 16 16 22 36 50 57 56 53 52 52 54 51 50 57 65 67 67 71 82 97 100 91 94 100 98 99 101 95 80 70 63 53 43 41 48 53 56 57 55 49 45 55 64 70 85 89 89 98 99 101 102 90 83 86 85 79 75 74 74 76 70 54 43 38 41 41 38 50
7 8 7 8 8 7 7 7 7 6 6 6 6 6 7 8 6 8 10 13 14 9 10 10 10 12 12 13 14 15 17 20 32 44 48 49 51 52 51 50 45 43 47 58 67 68 68 73 81 80 74 82 88 88 98 102 86 68 61 52 44 42 44 47 50 54 57 52 45 44 51 56 66 79 82 88 96 101 103 102 97 81 68 72 70 68 72 73 73 66 53 49 43 38 34 32 43
8 8 9 8 10 14 8 6 7 5 7 6 5 10 13 16 16 12 9 9 9 7 8 9 9 10 11 12 14 18 19 19 24 28 32 38 43 45 46 49 50 48 48 56 64 65 66 67 68 68 71 76 74 83 100 97 84 72 61 50 46 46 48 54 62 70 69 56 44 46 54 54 61 72 78 87 95 102 105 102 103 90 77 73 60 54 62 69 70 65 55 47 39 29 27 33 41
8 9 10 8 18 33 19 7 10 5 7 8 7 11 15 26 33 24 13 8 7 8 8 8 8 9 9 10 13 16 16 16 18 20 25 29 33 38 41 50 57 54 56 63 66 69 70 67 71 76 76 72 74 91 97 85 79 80 75 70 66 64 65 73 83 89 82 64 50 48 50 48 53 66 77 89 98 103 105 104 101 96 98 89 65 58 60 58 56 49 42 35 32 31 30 35 39
10 10 16 16 22 33 19 6 10 8 6 9 10 11 14 30 40 28 15 10 8 8 8 8 8 8 9 11 11 12 14 15 17 20 22 20 24 27 33 52 63 59 61 69 74 78 74 70 76 78 72 73 89 99 85 68 72 83 88 89 87 86 87 88 88 91 90 82 66 50 50 50 47 56 73 87 96 98 98 100 96 90 95 84 65 65 62 52 45 43 47 44 39 39 38 46 58
13 12 19 24 19 24 32 21 8 8 8 6 8 10 15 24 27 18 11 10 9 8 8 8 8 8 9 12 12 14 16 17 16 17 19 21 24 26 47 76 75 69 77 81 81 75 72 78 70 58 66 87 102 97 76 66 72 81 86 88 88 88 87 85 84 89 95 99 88 74 79 73 50 49 63 75 82 82 81 85 85 80 81 76 64 59 58 54 49 50 57 63 64 53 42 54 74
15 14 15 18 11 19 51 48 16 8 10 7 8 8 10 14 14 12 10 9 8 8 8 7 8 8 9 12 14 17 19 18 15 18 27 35 36 43 75 99 85 80 92 94 86 61 51 64 57 53 78 99 100 88 74 71 74 76 72 69 72 77 83 86 88 95 99 103 103 97 94 75 50 46 51 56 61 61 61 66 71 71 70 73 74 70 69 66 62 62 63 76 92 82 64 66 69
12 14 12 14 12 11 31 36 19 12 10 8 9 8 9 10 10 11 10 10 9 8 8 8 8 7 9 11 14 17 18 17 17 24 36 45 50 64 89 101 90 85 88 89 83 58 41 45 50 71 97 101 97 88 75 72 73 69 59 57 67 80 91 97 97 101 101 100 102 102 98 85 70 59 48 45 49 50 50 53 57 62 61 60 64 73 83 85 83 82 77 82 98 100 90 81 69
13 14 11 11 13 11 14 14 10 10 10 10 10 9 10 9 9 10 10 9 8 8 9 8 9 9 9 10 14 18 14 14 18 22 27 31 35 49 69 86 94 92 85 81 78 70 61 50 52 79 97 96 93 85 73 67 66 62 60 69 86 96 100 102 99 99 98 97 98 101 102 98 88 74 61 51 46 46 50 51 51 52 54 54 51 54 65 76 82 84 84 88 98 103 103 97 87
14 13 14 13 10 14 16 12 9 8 6 9 10 9 11 10 10 10 11 11 10 10 10 9 9 9 9 9 12 14 10 9 12 14 14 13 13 21 36 57 84 95 91 90 90 91 85 64 56 68 78 84 85 78 69 64 64 65 71 88 98 97 97 98 98 96 95 98 101 98 88 80 76 75 74 67 58 52 50 51 50 47 46 47 48 47 47 53 60 65 72 84 96 100 102 102 102
15 13 15 13 12 20 17 8 6 6 8 16 16 11 10 11 10 10 10 11 12 13 13 12 11 10 9 9 9 8 9 8 8 9 9 8 11 20 27 38 63 84 91 99 100 100 98 80 67 64 63 67 66 64 62 56 58 65 75 90 93 90 93 96 98 99 99 101 97 83 71 66 66 67 68 71 70 66 60 56 55 52 51 49 48 49 47 46 48 51 54 59 67 72 76 80 89
13 15 15 12 21 42 50 36 15 5 12 20 16 11 11 11 10 11 11 10 12 14 15 15 13 12 10 9 11 9 9 9 8 9 9 11 16 22 27 36 61 87 96 101 100 99 102 91 77 70 63 63 67 74 71 56 56 71 78 81 80 84 93 98 99 101 101 92 76 64 62 64 65 63 61 62 63 65 65 64 62 61 60 59 58 58 57 55 53 53 53 51 51 52 55 59 70
14 14 15 16 17 38 66 61 27 7 12 14 10 9 9 11 13 13 14 14 17 18 18 17 13 12 12 10 11 12 11 11 11 13 15 19 23 26 28 34 62 95 101 99 101 102 100 93 87 84 81 84 91 99 96 79 72 78 81 78 77 85 96 101 100 100 93 76 62 57 56 55 56 57 56 54 53 55 57 60 63 64 64 66 66 66 66 65 62 60 58 57 56 55 57 61 67
19 16 14 17 14 20 37 35 17 7 6 5 5 8 10 13 18 20 23 22 25 31 29 26 22 19 18 17 14 14 16 18 20 24 26 29 32 33 36 36 50 87 104 100 102 103 92 88 95 99 98 100 102 103 103 96 83 76 77 80 84 91 96 97 94 89 78 66 60 55 50 48 47 47 47 47 47 47 51 55 58 60 62 64 67 70 72 72 71 68 64 61 61 62 64 69 74
23 21 14 15 15 16 15 12 11 7 15 23 10 6 14 18 17 20 30 32 32 40 44 47 50 43 37 34 29 26 25 29 35 39 41 44 45 43 45 46 49 75 99 99 101 104 90 85 98 103 100 101 101 100 100 96 88 81 78 75 73 79 85 86 87 81 69 59 56 52 49 47 44 43 43 42 42 43 47 51 53 53 53 54 58 66 73 76 75 72 68 64 64 65 66 69 73
20 20 15 15 14 15 13 13 10 9 39 58 25 3 13 34 46 34 28 38 43 48 56 70 83 80 70 63 57 53 49 48 50 54 57 59 62 62 62 65 65 72 85 90 94 101 98 95 101 101 99 99 95 95 98 95 88 79 73 70 68 71 76 76 79 77 67 56 52 50 48 45 44 43 42 41 40 41 42 45 47 47 46 45 47 53 63 70 72 70 66 64 64 64 65 68 72
17 15 13 14 13 15 13 12 13 12 29 36 16 7 9 40 80 58 25 34 48 54 62 80 97 101 97 90 85 83 81 79 76 76 79 78 78 78 76 76 76 73 73 76 80 88 98 99 98 97 93 86 82 90 97 93 89 85 79 76 72 68 66 63 62 61 56 49 45 43 41 41 41 41 41 42 41 39 40 42 43 42 40 38 38 40 47 52 55 58 57 57 56 54 52 51 53
18 15 12 14 13 15 14 13 14 12 13 8 9 14 6 40 90 68 25 27 43 56 64 76 92 101 105 104 102 101 98 98 97 97 100 97 92 87 81 76 71 67 63 62 64 69 76 77 76 81 81 76 75 86 98 99 96 90 80 72 64 58 54 50 46 42 37 32 29 27 27 29 34 38 41 41 41 41 40 41 43 43 39 36 34 32 32 33 34 34 34 32 30 25 22 20 19
20 14 13 15 11 12 14 14 15 12 13 18 24 21 15 56 102 80 37 24 33 50 59 68 80 88 97 100 102 105 103 101 100 102 106 104 99 91 84 77 70 67 63 58 57 55 54 53 52 57 67 74 73 79 94 94 82 71 67 62 54 48 44 38 33 29 25 23 23 24 25 27 30 35 39 42 45 44 42 42 42 43 42 38 34 28 24 22 18 16 13 11 11 10 10 10 10
21 16 16 14 19 31 21 11 17 13 11 26 34 17 10 52 96 95 72 41 25 35 48 58 65 70 82 89 94 101 102 102 101 105 108 106 104 98 89 82 76 71 68 65 61 56 53 52 51 53 58 63 67 75 79 72 64 59 52 46 42 41 39 35 32 29 28 30 32 36 38 39 40 39 39 40 44 45 43 42 42 42 42 39 36 30 24 17 11 9 8 8 9 11 12 12 12
21 18 18 15 36 65 46 17 17 18 34 61 50 10 10 53 80 89 93 62 26 26 32 32 41 56 69 76 86 98 101 102 102 105 108 107 106 103 99 92 85 80 76 73 70 65 61 58 56 59 60 62 67 70 68 65 60 46 41 53 64 62 52 43 40 39 41 45 46 46 43 39 40 42 44 43 42 43 41 39 40 41 40 37 33 27 18 12 10 11 12 12 13 13 14 15 17
25 20 18 16 28 47 38 24 24 28 58 86 59 12 20 68 93 96 94 64 29 27 25 17 35 64 73 70 78 87 93 100 104 105 104 105 107 105 104 99 91 88 85 81 79 75 73 71 66 64 66 67 66 65 66 60 45 41 62 82 80 71 61 52 50 50 52 52 46 37 28 22 22 27 36 43 44 45 44 43 44 41 35 29 23 16 11 10 12 14 13 12 14 17 21 26 32
29 22 19 23 24 24 20 22 23 25 43 56 35 7 14 61 94 82 54 34 25 30 29 21 29 47 54 61 73 76 78 87 97 102 100 99 105 105 104 102 96 93 89 87 87 86 84 81 74 71 71 70 69 68 58 41 41 66 85 70 48 48 49 43 42 43 40 34 24 17 14 16 21 27 37 47 53 54 50 45 36 27 19 14 11 9 9 11 11 12 13 17 24 32 40 47 54
29 25 22 24 25 24 24 36 41 30 27 28 21 15 29 58 65 41 21 19 21 24 29 31 30 30 32 41 57 65 69 76 81 87 89 91 99 104 103 101 99 97 93 89 89 89 88 81 73 71 71 72 71 57 38 42 72 93 80 51 37 39 36 31 31 27 21 14 9 10 12 15 21 27 32 36 37 34 29 22 16 12 10 8 9 9 9 11 12 14 19 25 35 47 57 65 71
30 30 27 23 23 19 23 48 58 35 20 25 22 16 32 47 30 16 21 20 16 18 21 26 29 32 33 30 35 44 54 66 71 73 78 84 91 98 101 102 102 100 98 95 91 88 84 77 67 59 56 59 57 40 39 73 99 95 79 61 47 40 35 32 31 27 25 21 15 13 11 10 11 12 13 13 13 12 11 10 8 7 8 8 10 11 12 14 17 22 28 34 41 51 61 71 78
32 33 30 24 22 18 22 41 41 25 25 35 26 17 48 75 48 23 27 19 15 19 15 19 22 22 29 28 25 29 34 44 56 62 70 78 82 87 94 100 103 102 102 102 100 94 86 77 66 54 47 47 42 39 62 96 102 94 90 73 50 45 45 40 37 38 39 40 40 37 28 19 13 10 9 8 7 8 7 9 11 14 19 23 26 28 29 31 32 34 37 40 43 47 54 62 69
34 35 34 26 22 19 24 32 27 27 38 40 27 17 46 83 58 22 29 27 15 14 24 47 46 19 15 23 21 23 25 27 35 43 51 60 67 73 80 90 99 103 104 103 102 96 85 77 68 53 45 41 38 50 79 102 102 98 95 76 55 51 50 46 46 47 48 50 55 55 51 42 29 17 12 12 16 21 25 29 34 38 43 46 50 53 57 59 61 61 60 59 58 57 58 59 61
33 35 33 27 27 28 25 26 28 38 45 40 37 24 28 64 66 34 27 24 15 15 28 56 63 32 13 16 18 18 20 21 23 26 30 35 43 50 59 74 87 95 98 96 94 87 75 69 60 47 40 37 41 61 88 101 97 93 89 73 54 49 50 50 49 50 50 49 49 50 52 53 44 30 26 32 41 47 50 51 49 48 47 46 46 50 56 62 67 72 76 80 83 83 81 77 76
33 34 34 26 27 31 29 28 31 40 45 40 42 38 36 72 96 71 40 22 15 19 24 39 55 42 19 14 18 17 18 19 18 19 21 22 26 29 37 54 68 76 81 82 80 74 66 58 47 39 40 40 49 72 95 102 92 84 81 69 52 50 54 52 49 50 49 45 44 44 44 48 49 41 40 47 50 49 49 49 47 48 49 48 45 44 45 50 55 62 72 81 89 93 94 94 94
33 30 31 27 27 26 24 30 31 34 45 46 46 49 57 87 107 83 45 25 18 19 29 44 48 31 14 14 18 18 19 19 18 18 18 18 20 20 23 34 45 53 58 63 66 63 57 48 39 46 57 63 75 90 100 102 91 79 75 70 61 57 57 54 49 44 43 40 38 38 39 43 49 50 49 50 46 43 44 44 45 49 54 58 59 56 54 54 56 60 66 72 79 83 86 89 93
33 28 28 28 33 29 24 29 29 28 40 45 45 55 69 90 100 71 35 26 23 15 28 55 55 31 17 18 16 15 17 16 17 19 18 19 22 22 22 25 31 38 42 48 53 51 47 42 43 64 85 91 97 100 100 101 97 85 78 74 67 60 58 60 53 44 42 40 35 37 38 39 44 51 53 51 45 41 39 37 38 44 54 67 77 80 82 81 79 78 78 77 78 76 72 71 74
Wind_Speed
9 8 6 5 3 2 0 0 1 1 1 5 6 7 6 5 7 9 11 14 16 14 16 19 20 21 25 27 28 29 30 28 27 26 23 19 12 7 8 9 10 10 8 8 10 10 6 3 2 3 5 5 4 3 3 1 2 2 3 3 4 4 5 4 4 3 3 4 5 6 7 5 3 2 3 4 5 5 3 4 6 6 6 6 6 4 2 2 5 5 5 4 6 8 9 8 9
9 9 7 6 4 2 1 1 1 1 2 5 5 7 6 5 7 9 10 13 15 15 13 16 17 18 22 25 25 26 28 28 27 26 24 21 17 12 8 7 7 8 6 4 6 7 5 5 5 6 7 6 3 2 2 2 3 3 4 5 5 5 5 5 4 3 4 4 5 6 6 4 3 3 4 5 5 4 2 3 5 5 5 5 4 2 1 2 4 4 4 5 7 9 10 9 8
8 10 8 7 6 4 3 2 2 3 3 3 4 7 5 5 6 7 9 11 14 15 12 13 14 15 18 22 23 24 26 26 26 26 25 22 19 16 12 10 8 7 5 3 2 5 7 9 9 10 8 6 4 3 3 3 4 5 5 5 5 5 4 4 4 4 4 4 5 6 5 4 5 6 6 6 6 4 2 2 4 5 5 5 2 1 1 2 4 4 4 5 7 7 10 10 7
8 10 10 9 9 7 5 4 4 4 3 2 3 5 3 3 5 7 8 9 13 14 11 10 12 13 15 19 20 22 23 25 25 25 25 23 20 18 15 13 12 11 10 7 4 1 5 7 7 8 7 5 4 4 4 4 4 5 5 4 3 3 4 4 4 4 4 4 6 6 6 6 7 7 7 7 7 5 3 2 4 5 5 4 2 2 2 2 3 3 4 5 5 6 9 11 9
10 11 11 11 11 7 4 5 6 4 3 3 2 4 2 2 5 7 6 7 11 11 10 8 9 11 12 15 18 19 21 23 24 23 23 22 21 19 17 14 13 13 12 11 9 6 4 2 2 3 4 4 3 3 4 4 4 3 3 2 2 3 4 4 4 4 5 6 6 6 7 7 7 7 7 8 8 6 4 3 4 5 4 4 3 2 4 4 3 2 3 4 6 8 10 12 12
11 11 12 12 12 8 2 3 5 5 5 3 2 3 3 2 4 6 4 6 9 9 8 7 8 9 10 11 14 16 18 20 22 22 21 21 20 19 18 15 14 12 11 9 8 7 6 5 4 2 1 0 2 3 3 3 2 1 1 1 2 3 4 4 5 6 6 6 6 5 6 6 7 7 8 9 9 8 7 5 6 6 6 5 5 3 5 3 2 1 3 4 6 9 10 13 12
13 12 12 13 13 10 4 3 5 6 6 4 2 2 3 2 3 3 3 5 7 7 7 6 7 8 9 9 11 13 16 18 20 20 20 19 18 18 18 16 14 13 11 9 6 5 4 4 4 4 3 2 2 2 2 2 1 1 1 2 3 4 5 5 5 5 5 4 4 4 4 5 6 7 9 9 10 10 9 8 8 8 8 7 6 5 5 3 4 3 2 4 7 9 11 12 8
15 14 13 13 13 11 7 5 5 6 7 5 2 1 3 4 3 2 2 5 6 6 4 5 6 6 8 7 7 10 13 15 17 18 19 19 17 17 17 16 14 13 12 10 9 7 5 4 4 4 3 2 1 2 2 2 2 3 3 4 4 5 5 5 4 4 4 4 4 4 5 5 6 7 8 9 10 11 11 11 10 10 9 9 7 5 5 5 5 4 3 4 7 9 9 10 6
17 16 15 15 14 12 9 6 4 6 8 6 4 3 5 6 5 4 3 4 6 5 3 5 5 5 7 7 5 8 10 11 15 16 16 17 17 16 16 15 14 13 12 11 10 9 8 7 6 5 4 3 3 3 4 4 4 4 4 4 4 4 4 4 4 4 4 5 5 5 5 6 6 7 8 9 10 11 11 11 11 11 10 10 8 5 5 6 5 5 5 5 7 9 8 8 7
20 19 17 16 14 13 11 7 5 7 10 9 6 5 5 7 8 7 6 4 4 4 2 4 5 6 8 7 5 5 7 8 11 13 14 14 15 16 15 15 14 14 13 11 10 9 8 9 8 8 6 5 4 3 3 4 4 4 3 3 3 3 3 3 3 3 3 3 4 4 5 5 5 6 7 7 8 8 9 9 10 10 10 10 7 5 5 6 6 5 6 6 7 10 10 9 8
22 22 20 18 15 13 12 9 9 11 11 11 9 7 7 9 10 9 8 7 5 3 1 4 5 6 8 7 6 4 6 7 8 11 12 12 13 14 14 14 14 14 14 13 12 10 8 8 8 9 9 9 8 8 7 7 7 6 6 6 6 6 6 5 5 4 4 4 4 4 4 5 5 5 5 6 6 7 7 8 8 9 9 8 6 5 5 7 7 7 7 7 8 10 11 11 9
24 23 22 20 18 15 14 12 13 12 11 12 11 8 9 10 9 8 9 9 6 3 2 4 3 5 8 9 7 4 5 6 6 8 9 9 10 11 13 12 12 13 14 14 14 12 11 9 8 8 9 9 10 10 10 10 10 9 9 9 9 8 8 7 7 6 6 6 5 5 5 5 5 5 6 6 7 7 7 8 8 8 7 6 6 6 7 8 9 10 10 9 8 10 12 12 9
26 25 24 23 20 18 16 15 14 12 11 14 12 9 10 11 10 10 9 8 5 3 3 5 4 4 8 10 8 4 5 5 6 6 6 7 8 8 10 11 11 11 12 13 14 14 13 12 11 9 8 9 9 9 9 9 9 9 9 9 8 8 7 6 5 5 5 5 5 5 5 5 5 6 6 7 7 8 8 8 8 8 6 5 6 7 8 9 11 12 13 11 9 10 12 11 9
28 26 25 24 23 21 19 16 14 13 14 14 12 11 11 11 12 14 11 8 5 4 6 7 7 5 7 10 7 4 5 5 6 7 5 5 6 6 6 8 9 10 10 11 12 13 13 12 12 11 9 8 7 7 6 6 6 6 6 6 5 5 4 4 4 4 4 5 5 5 6 6 7 7 8 9 9 9 9 9 9 9 7 6 8 9 9 10 12 13 13 12 11 11 11 11 9
29 28 26 26 25 23 22 18 16 17 17 13 10 10 12 14 15 15 13 9 6 6 8 9 9 7 6 7 5 4 5 4 5 7 6 5 5 5 4 4 6 8 8 9 8 9 10 11 11 11 10 8 6 5 4 4 3 3 3 3 3 4 4 5 5 5 5 6 6 7 8 8 9 10 10 11 11 10 10 10 10 10 9 7 9 10 10 10 10 11 12 13 14 13 12 11 9
30 28 28 28 27 26 24 21 19 20 19 15 12 11 12 15 15 14 14 11 8 9 10 10 11 8 5 6 4 5 6 5 5 7 7 5 4 5 4 3 3 5 6 7 6 6 6 7 8 9 9 8 7 5 4 3 3 3 3 4 4 5 6 6 6 6 6 7 8 8 9 10 10 11 12 12 12 11 11 11 11 11 11 9 10 12 11 10 10 10 12 14 15 14 12 9 8
31 30 30 31 29 27 26 24 22 23 22 19 18 16 16 17 15 15 14 14 12 12 11 11 11 9 7 6 6 5 5 5 6 7 7 6 5 5 6 4 2 1 3 4 5 4 4 4 4 5 6 6 6 5 4 3 4 4 5 6 7 8 8 7 6 6 6 8 9 10 10 10 11 12 13 14 14 13 12 11 11 11 12 11 11 12 12 13 13 13 13 14 14 12 9 7 8
32 31 32 32 31 29 28 27 26 26 24 22 22 21 22 22 19 18 17 16 16 14 13 12 10 10 9 8 7 6 5 5 6 7 7 6 6 6 7 6 4 3 2 3 3 4 4 3 2 3 4 4 4 4 4 4 4 4 5 6 8 9 9 8 8 8 8 9 11 11 11 11 12 12 13 15 15 14 13 12 11 11 11 11 12 13 14 15 15 14 13 12 10 9 7 7 8
34 33 32 32 32 32 30 29 28 28 27 26 24 23 24 24 24 23 22 20 19 16 15 14 12 12 12 10 10 8 7 7 7 8 8 7 6 6 7 7 6 5 5 5 4 5 5 4 4 3 4 4 5 5 6 6 6 6 7 7 8 8 9 10 10 11 11 11 12 12 12 12 13 14 14 15 15 15 14 12 11 10 10 11 11 13 15 15 13 11 8 7 8 7 6 7 8
34 33 33 33 32 32 31 31 31 31 30 29 27 26 25 25 26 26 25 24 22 19 17 16 16 16 15 14 13 12 11 10 9 9 9 8 7 7 7 8 7 6 7 8 8 8 7 6 7 6 6 7 7 7 8 8 9 9 9 10 10 10 11 12 12 13 13 13 13 12 12 12 13 14 15 15 15 15 14 12 11 9 9 9 10 12 13 13 10 7 4 4 5 6 5 6 8
32 31 32 35 35 33 32 32 33 33 33 32 31 29 28 27 27 28 27 26 24 22 20 19 18 19 18 17 16 15 14 12 10 10 10 9 9 9 8 9 9 9 9 10 11 11 10 8 9 9 9 10 10 10 11 11 12 11 11 12 13 13 14 15 15 14 14 14 13 12 12 12 12 13 14 13 13 13 12 12 9 7 7 7 8 9 9 8 5 3 2 1 1 3 4 6 8
30 30 30 33 35 33 33 34 34 35 35 34 33 32 31 29 29 29 29 28 26 25 23 22 20 19 19 19 18 17 15 14 13 13 12 11 11 10 10 10 11 11 11 11 12 12 13 11 10 10 11 12 13 13 13 14 14 14 13 12 14 15 16 17 17 16 14 14 14 13 12 12 12 13 11 10 9 10 10 9 7 4 4 4 5 5 4 4 4 4 4 3 2 3 4 7 8
27 28 30 31 34 35 35 36 36 36 36 36 36 35 34 32 31 31 31 30 28 27 26 25 24 22 21 20 20 19 18 17 17 17 16 14 13 12 11 12 12 12 12 12 13 13 13 13 12 12 12 14 14 15 16 16 17 16 15 12 13 16 17 18 19 18 16 14 14 14 13 11 12 11 8 5 7 9 8 5 3 2 2 3 3 3 4 4 3 2 2 2 2 3 5 8 9
26 27 30 31 33 37 38 38 38 38 38 37 37 37 36 35 34 32 32 31 30 30 28 27 27 25 23 22 21 21 21 21 21 20 18 16 14 13 12 12 13 13 13 13 15 15 15 15 15 14 15 15 16 17 18 18 18 19 18 15 14 17 17 18 19 18 15 14 14 13 12 11 11 9 5 5 7 7 5 2 1 1 3 4 4 5 4 3 2 1 1 2 1 1 2 5 8
24 26 28 30 32 35 38 40 40 40 40 39 39 38 38 37 36 34 33 32 31 32 30 30 29 28 27 25 23 23 23 23 23 22 20 18 16 14 14 14 14 14 14 14 15 16 16 17 18 17 17 18 20 20 20 20 20 21 19 16 16 18 17 17 17 15 14 13 13 12 11 11 11 9 7 7 7 5 3 2 3 3 4 5 6 5 4 4 5 4 4 5 5 5 5 4 7
22 23 25 28 30 32 35 37 39 40 41 41 40 40 39 39 37 36 35 33 33 33 33 32 31 31 30 28 26 25 25 25 24 23 21 20 18 17 16 16 15 15 15 15 15 16 18 18 19 19 18 20 22 22 21 20 21 20 18 16 17 17 16 16 15 12 11 11 12 11 11 11 11 10 9 7 6 5 4 4 5 4 5 7 7 6 6 7 8 7 6 6 7 8 9 7 8
21 22 23 24 26 28 31 33 36 38 40 41 41 41 40 39 38 36 35 35 34 35 35 34 33 33 32 31 30 28 28 27 25 24 22 21 19 18 17 17 17 16 16 17 16 17 18 19 19 19 19 20 21 20 20 19 19 18 17 16 16 15 14 13 11 10 10 11 11 11 11 11 11 11 9 7 7 5 5 7 7 7 7 8 8 7 7 8 9 8 7 8 8 8 9 10 10
18 19 20 21 22 24 26 29 32 34 36 38 39 39 39 39 38 36 35 36 36 35 35 35 35 34 33 33 32 31 30 28 26 23 22 21 20 19 18 18 18 17 17 17 18 18 20 20 20 20 20 20 20 19 18 17 16 16 15 14 13 12 11 10 9 9 10 11 11 11 11 11 11 11 9 8 7 5 6 7 8 8 8 9 9 9 9 9 9 10 10 10 10 10 11 13 14
16 17 18 19 20 21 23 25 28 30 32 34 35 35 36 36 36 35 36 36 37 37 36 37 36 35 34 33 33 32 31 29 27 25 23 23 22 20 20 20 20 19 18 18 19 19 20 21 21 20 19 19 20 20 20 16 12 11 11 9 9 8 8 8 8 9 10 10 10 10 10 11 12 11 10 9 8 6 7 7 7 8 8 10 12 11 10 11 11 12 13 12 13 14 15 16 17
14 15 17 17 18 19 20 22 24 26 28 29 30 30 29 31 33 34 36 37 37 37 37 37 36 35 35 34 33 32 31 31 30 28 27 25 23 22 22 22 22 21 20 19 19 19 20 21 20 19 19 19 20 22 20 13 9 8 7 6 6 6 6 7 7 8 9 10 9 9 10 12 13 12 12 11 9 7 7 7 6 7 10 13 15 14 13 12 13 14 14 15 17 18 18 18 17
13 13 15 15 14 14 17 19 20 22 24 24 26 28 27 26 28 32 34 36 36 36 37 37 36 36 35 34 34 33 32 31 30 29 28 26 24 23 22 23 22 21 20 19 19 19 20 21 20 20 19 19 22 21 14 8 7 7 6 6 6 6 7 7 8 8 8 9 8 8 9 12 14 14 14 13 12 10 9 9 8 11 14 16 16 16 16 15 14 15 17 19 20 21 20 20 20
12 12 12 12 11 12 16 19 18 20 21 22 24 26 26 26 26 30 32 34 35 35 35 35 35 36 35 35 34 33 32 31 30 29 28 26 26 25 24 23 22 20 20 19 19 19 19 20 20 20 19 20 20 14 8 7 8 8 7 8 8 8 9 10 11 10 9 9 8 7 8 12 16 17 16 16 15 13 12 11 11 13 16 17 18 19 18 18 17 18 20 21 22 24 23 22 22
12 11 10 10 11 10 13 18 18 18 20 20 22 23 24 26 28 30 32 32 33 34 34 34 34 35 34 33 33 32 31 30 29 29 27 26 25 25 24 23 21 19 18 18 18 18 19 20 20 19 19 20 16 10 9 10 10 9 9 10 10 11 12 13 14 14 12 10 10 10 12 14 17 19 19 18 17 16 14 13 13 14 16 18 19 20 20 20 20 20 22 22 24 27 26 23 23
12 12 11 11 11 9 10 16 18 17 18 19 20 21 23 26 27 29 30 31 32 33 33 34 34 34 33 31 31 31 30 29 28 28 27 26 25 24 24 24 22 20 18 18 17 16 17 18 18 18 20 18 14 12 12 12 12 12 12 12 12 12 13 14 15 16 14 13 14 15 15 16 17 19 21 21 20 18 17 16 16 17 18 18 18 19 20 22 22 22 23 22 24 28 28 25 26
12 13 12 11 11 10 11 15 16 15 15 17 19 20 21 23 25 26 27 28 30 30 31 32 32 33 32 30 29 30 30 28 27 28 28 28 27 25 25 26 24 21 20 19 17 15 14 15 16 17 19 18 16 15 15 14 14 13 14 13 12 12 13 14 15 17 16 17 18 19 17 17 18 20 21 22 23 22 21 20 19 20 21 21 21 20 21 23 23 23 24 24 26 29 30 28 28
12 12 12 11 10 10 11 13 14 14 14 15 17 18 20 21 23 24 25 26 27 27 28 29 30 30 30 28 28 29 29 28 28 29 29 30 29 28 27 27 25 22 21 20 17 16 14 13 15 17 20 20 18 17 16 16 16 15 15 13 12 13 14 14 16 18 18 18 20 20 19 19 20 21 23 24 24 25 25 24 24 24 24 25 25 25 24 25 25 25 26 26 28 31 31 30 29
12 12 11 11 9 8 9 12 12 12 13 14 16 17 18 19 21 21 22 23 24 25 25 26 27 27 27 27 27 28 28 27 28 28 29 29 28 28 28 27 25 23 20 19 17 16 14 13 14 17 21 21 20 19 19 18 17 16 16 14 13 14 14 16 18 19 19 19 21 21 21 22 23 23 24 25 26 27 27 27 28 28 28 29 29 30 29 28 28 29 29 29 30 32 33 32 30
13 12 11 11 9 7 9 11 11 10 11 13 15 16 17 18 18 19 19 20 21 22 23 24 25 25 25 26 26 26 26 26 26 26 26 26 26 26 26 25 23 20 16 14 14 15 14 13 14 17 20 21 21 21 21 20 19 18 17 16 16 16 17 19 20 21 21 21 22 23 23 24 24 24 25 26 27 28 29 29 30 31 32 32 33 33 34 33 33 33 34 34 34 34 35 34 31
13 12 11 10 7 5 7 10 11 10 10 13 14 14 16 16 16 16 17 18 19 20 21 22 23 24 24 23 23 23 23 23 23 23 23 23 24 25 24 23 20 16 14 13 12 14 15 14 14 15 15 17 19 20 21 20 19 19 19 19 19 20 21 21 21 20 20 21 22 22 23 24 25 25 26 26 27 29 30 31 32 33 34 34 35 35 36 36 37 37 38 38 38 39 39 38 36
13 12 11 10 7 5 7 10 12 11 11 13 14 13 14 14 14 14 15 15 16 17 18 20 21 21 21 21 21 20 20 20 20 20 20 21 22 23 23 23 21 18 17 17 16 16 15 14 14 14 14 15 17 18 20 19 18 18 21 22 23 23 23 22 21 21 21 22 23 23 24 25 26 26 27 27 28 29 31 32 34 35 36 36 37 38 38 39 39 39 40 41 41 42 42 41 41
13 12 11 12 9 7 9 11 11 11 11 13 13 13 13 13 13 13 13 14 15 16 16 17 18 18 18 18 18 18 18 18 18 18 18 19 21 22 23 23 23 23 22 20 20 19 17 15 17 16 15 15 14 14 16 18 18 19 21 22 23 23 23 23 24 25 26 26 27 27 28 28 29 28 28 29 29 30 31 33 34 35 36 37 38 39 39 39 40 40 40 40 40 41 41 41 41
13 12 12 12 11 9 10 10 9 8 9 13 14 12 11 11 12 13 13 14 15 16 15 15 15 15 15 15 16 16 16 17 17 17 18 19 20 21 21 21 22 24 25 24 22 20 19 19 21 22 20 20 18 17 17 18 19 20 22 24 25 25 24 25 26 27 28 28 30 31 31 32 31 31 31 30 30 30 31 32 33 34 35 36 36 37 38 38 39 39 39 39 38 38 39 39 40
14 14 12 12 11 11 11 10 9 5 4 12 16 12 10 8 11 14 14 14 15 15 15 15 14 13 13 14 14 15 15 16 17 17 18 19 20 20 20 20 21 23 25 25 24 23 22 21 24 26 26 24 24 23 21 21 21 21 22 24 25 27 27 27 28 29 30 31 33 33 34 34 33 33 32 32 32 31 31 32 33 33 34 35 36 37 37 38 39 39 40 40 40 40 40 41 41
16 16 13 12 11 11 11 10 10 8 8 14 14 11 9 5 7 16 15 15 16 16 16 15 14 14 13 13 13 13 14 15 15 16 17 18 19 19 20 20 20 21 22 23 23 23 23 24 24 26 27 27 26 24 23 23 22 22 22 24 25 27 29 30 31 32 34 35 35 36 36 35 34 34 33 33 33 33 33 33 33 33 34 35 36 36 37 38 39 40 41 41 42 43 43 44 44
18 17 14 13 12 11 11 10 11 11 10 12 11 10 9 3 6 16 18 16 16 16 17 16 16 15 14 14 13 13 13 13 14 15 16 16 17 17 17 18 18 18 18 19 20 20 21 21 22 23 25 26 24 22 21 21 21 22 22 24 26 28 30 31 32 34 36 37 38 38 38 37 36 36 35 35 34 34 34 34 34 34 34 34 35 36 37 38 39 40 41 42 42 43 43 43 43
19 18 15 14 13 12 12 11 12 12 11 11 10 9 6 3 6 15 18 18 18 18 18 17 18 17 16 15 15 14 13 14 15 15 15 15 15 15 15 15 15 15 15 16 16 17 17 18 18 19 21 23 23 22 22 22 23 22 22 25 27 29 31 32 34 35 36 37 38 38 39 39 38 38 37 36 35 35 35 35 35 35 35 35 36 36 37 38 39 40 40 40 40 39 39 38 37
20 19 16 13 12 11 12 12 12 12 13 11 10 9 6 5 9 11 15 20 20 19 19 18 18 18 17 16 16 15 15 15 15 15 14 14 14 14 14 14 14 14 14 14 14 15 15 16 15 15 17 20 22 23 24 23 23 23 24 27 29 30 31 32 33 33 34 35 37 38 39 39 39 39 38 38 37 36 35 35 35 36 36 36 37 37 38 38 39 38 38 37 35 34 33 32 32
20 18 16 13 9 9 12 13 12 11 9 9 12 11 5 5 10 11 17 23 21 19 19 18 16 17 19 18 17 17 17 17 16 15 15 14 14 14 14 13 13 13 13 13 13 14 14 14 14 14 15 17 19 20 22 22 23 24 24 26 28 28 28 28 29 31 33 35 37 39 40 40 40 39 38 37 36 36 35 35 36 36 36 36 37 37 37 37 36 35 34 33 31 30 29 29 28
20 19 17 14 11 11 13 13 12 10 6 8 14 12 7 7 10 14 21 24 21 20 19 17 16 20 22 21 20 20 19 18 18 17 17 16 16 16 15 15 14 13 13 13 13 13 13 13 13 14 15 16 18 18 19 21 21 21 21 23 24 23 23 24 27 30 34 36 37 38 37 36 35 34 34 34 34 34 34 34 35 35 35 35 35 35 35 34 33 32 31 30 28 27 26 25 24
20 20 18 15 13 14 14 14 13 12 11 14 16 13 8 9 13 19 24 23 21 20 19 18 19 22 23 23 23 22 22 21 20 19 19 18 18 17 16 16 15 15 15 14 14 14 14 14 14 15 16 16 17 18 19 19 18 16 15 16 16 17 20 23 26 29 31 31 31 29 27 26 25 25 26 27 28 29 30 31 31 31 31 32 32 32 32 32 31 30 29 27 25 23 23 22 22
20 20 19 16 15 15 14 14 13 12 14 16 16 13 9 11 17 21 21 20 20 20 18 18 18 19 21 23 24 25 24 24 23 22 22 21 20 19 18 17 17 17 16 16 16 16 16 16 16 16 16 17 17 18 17 15 12 9 8 8 10 13 17 20 22 23 23 22 20 19 18 18 17 17 18 20 21 23 25 26 26 27 28 29 29 29 30 30 29 28 26 24 22 21 21 22 23
21 20 20 18 17 16 14 13 13 14 15 16 17 14 11 14 18 17 17 18 18 17 17 17 18 19 20 21 23 25 26 26 26 25 24 24 23 22 20 19 18 18 18 18 18 18 18 18 18 18 18 18 17 17 15 11 7 5 4 5 8 11 14 16 17 17 17 17 16 15 14 14 14 14 14 15 17 19 20 22 23 23 23 24 24 25 25 26 26 25 24 23 23 22 23 24 25
22 21 21 20 19 17 15 14 15 15 14 15 18 14 8 14 19 17 18 19 16 14 14 14 17 19 20 21 21 23 25 27 28 28 27 27 26 25 23 22 21 21 20 20 19 19 20 20 20 20 19 19 17 17 15 10 8 5 4 4 6 9 13 15 15 16 16 16 15 15 15 14 13 13 13 13 14 15 15 15 15 14 14 15 16 17 18 19 19 20 21 22 23 24 25 26 28
22 22 22 21 20 19 16 15 15 14 13 14 18 13 6 11 20 20 19 19 16 11 8 12 18 19 19 20 21 22 23 25 27 28 29 29 29 28 27 26 25 24 23 22 22 22 22 23 22 22 21 19 18 18 15 12 10 8 5 4 5 7 10 14 15 15 15 15 15 14 14 14 13 12 10 9 9 8 8 8 8 10 11 13 14 15 15 16 16 17 19 20 22 24 26 28 30
23 22 23 22 21 19 17 15 13 13 14 15 16 13 7 8 17 21 21 21 17 8 4 10 18 19 18 17 18 20 21 23 25 26 27 28 29 30 30 30 30 29 28 27 26 26 25 25 24 23 21 19 19 19 15 13 13 11 9 7 6 7 10 14 16 15 15 15 15 15 15 13 11 9 7 8 10 11 10 10 11 12 14 16 17 17 18 18 19 20 21 22 24 25 27 29 30
24 23 23 23 20 18 16 15 14 13 14 15 14 11 7 4 10 21 23 21 17 7 3 10 17 19 18 16 17 18 19 21 23 24 26 26 28 29 30 31 32 32 32 31 30 28 27 25 23 22 20 19 19 18 16 15 15 13 11 10 9 10 12 16 17 17 16 17 18 18 17 15 11 7 5 7 11 13 13 14 15 16 18 20 22 22 22 22 23 24 25 26 27 28 29 31 32
23 23 23 23 20 18 17 17 17 15 15 15 13 10 8 6 11 21 24 21 17 7 2 10 19 20 18 15 15 17 18 19 20 22 23 24 25 27 28 30 31 32 32 31 30 28 26 24 22 20 18 16 17 17 18 17 15 11 10 10 12 14 15 16 17 17 18 20 21 20 19 17 14 10 7 8 12 15 17 18 20 21 23 25 26 26 26 26 26 27 28 30 31 33 33 34 34
22 22 23 22 20 18 17 17 19 18 16 16 13 10 11 14 18 22 22 19 17 8 2 11 20 20 19 17 15 16 16 16 17 19 20 21 22 24 25 27 28 28 29 28 28 27 26 23 21 18 16 13 15 18 17 15 14 14 12 13 14 16 17 17 17 17 19 22 22 21 20 18 16 14 13 13 16 19 21 23 24 25 27 28 28 28 28 28 29 30 31 33 36 37 37 37 38
Wind_Direction
197 191 182 184 166 141 329 355 54 106 9 360 356 350 3 33 36 37 39 36 34 38 47 51 47 44 49 49 47 50 53 54 59 62 64 66 69 70 67 74 95 103 107 127 155 167 174 197 225 241 271 302 305 266 253 248 170 177 198 201 193 190 201 213 231 260 295 306 306 306 310 317 325 301 270 287 296 299 325 348 348 357 17 33 46 68 87 97 89 80 69 44 33 23 8 4 11
202 194 180 180 169 165 263 294 286 260 339 346 344 337 349 34 40 43 43 38 35 35 41 47 50 46 48 52 49 50 54 56 59 62 62 64 66 68 68 74 94 110 114 121 157 182 219 251 247 250 271 287 284 238 236 224 205 209 209 207 205 213 223 232 254 278 297 300 302 304 307 305 275 240 254 273 277 284 325 348 344 355 22 44 58 96 160 108 95 83 67 44 31 19 7 355 2
203 196 187 186 182 196 231 257 261 261 311 326 328 332 352 24 31 46 44 37 30 31 33 37 47 49 48 53 53 51 53 56 60 63 64 63 65 66 68 73 82 94 98 99 171 215 247 261 255 257 269 270 244 215 208 202 209 213 212 215 219 228 238 253 275 287 297 301 301 301 297 282 253 241 251 257 255 270 315 337 338 353 22 35 33 188 208 117 106 86 70 47 33 15 3 352 5
207 199 193 196 197 204 224 244 254 256 290 283 306 334 9 18 20 37 36 28 21 26 28 23 36 47 51 54 55 54 53 54 58 64 66 65 64 66 66 68 72 73 67 58 48 269 264 268 259 257 260 254 236 214 195 193 205 213 216 223 233 246 256 271 285 295 303 305 301 300 292 276 262 255 253 250 248 270 302 318 336 347 8 7 312 227 204 169 124 83 51 37 20 348 349 349 4
215 205 198 205 210 210 213 239 257 257 270 259 282 327 346 353 11 21 25 18 13 22 24 14 20 37 52 55 55 57 55 53 55 60 66 67 66 66 67 67 69 68 63 56 51 47 32 359 283 261 259 252 238 205 185 188 202 214 225 235 253 261 266 281 297 308 310 307 306 304 296 283 274 263 257 254 252 268 293 318 332 333 337 330 311 246 211 186 135 77 14 8 348 332 344 346 354
220 215 208 214 224 227 212 231 252 260 262 256 258 300 311 322 0 11 18 7 7 17 23 13 2 20 46 52 52 58 60 55 53 56 62 68 69 68 69 69 71 73 70 64 57 53 50 47 43 34 16 167 174 175 185 196 210 224 260 269 276 279 287 300 309 314 314 313 311 309 302 290 278 269 264 259 258 270 289 310 321 319 316 311 309 268 221 190 181 262 348 351 336 333 345 351 1
223 221 218 222 232 237 248 249 244 261 265 256 252 303 302 288 338 4 1 349 360 9 20 16 354 7 32 44 51 59 66 58 52 55 57 63 69 71 71 72 73 75 77 75 72 67 60 49 43 44 53 78 132 176 203 213 230 279 304 300 298 300 305 310 314 316 315 308 303 304 303 292 279 272 267 267 268 276 289 303 308 308 305 298 297 273 226 214 251 260 317 332 327 329 346 2 20
226 224 224 226 234 238 243 250 245 260 266 256 239 269 265 266 302 329 331 340 356 2 14 12 355 354 10 30 53 63 69 61 53 53 57 58 63 68 70 73 73 75 78 77 76 74 70 59 49 39 31 18 337 294 291 298 304 308 308 306 305 306 310 311 310 306 298 291 288 290 290 289 285 279 276 278 278 283 292 300 302 299 295 290 287 275 235 226 258 260 275 312 323 325 348 6 14
229 228 228 226 231 234 234 242 251 264 262 249 229 231 254 272 287 292 294 324 353 354 359 5 359 340 347 13 45 70 72 63 54 51 56 58 59 62 65 70 71 72 75 77 76 73 71 65 60 51 39 16 340 322 319 322 321 320 316 313 312 312 313 311 306 298 292 287 289 292 293 295 297 295 291 289 290 292 297 300 298 294 289 286 282 275 240 229 253 257 274 309 322 319 334 353 342
229 229 229 228 228 230 230 228 231 249 253 245 237 234 244 264 277 279 278 291 334 345 3 0 2 342 331 349 13 66 73 63 56 49 53 57 57 59 61 65 66 66 68 73 75 73 74 69 64 60 57 51 38 23 13 10 5 0 360 358 1 2 359 353 344 330 321 316 316 316 313 313 310 308 305 305 306 306 307 304 299 291 285 284 280 270 236 225 242 250 271 300 309 307 311 318 316
228 230 231 231 229 229 227 224 224 233 243 243 244 244 228 244 269 272 273 282 307 323 332 335 353 347 323 324 343 29 58 58 58 48 49 54 56 57 58 61 62 61 62 64 67 68 68 70 68 64 62 59 58 58 58 57 56 57 61 65 65 63 59 54 48 40 31 21 11 358 346 337 330 327 328 331 332 330 324 314 303 292 284 282 277 260 234 219 227 237 255 275 286 292 297 302 308
230 230 232 232 230 229 225 224 231 232 238 243 247 253 232 232 256 263 271 276 287 306 294 297 320 340 318 309 324 349 25 43 55 45 46 49 53 56 56 57 59 58 57 58 60 63 63 61 63 64 62 60 60 61 64 65 66 67 69 71 69 67 64 60 55 49 43 34 25 13 359 349 341 341 343 345 346 344 336 326 314 299 288 281 270 250 233 223 222 229 239 248 267 280 283 292 311
232 231 232 233 232 231 227 226 236 241 240 243 248 246 228 224 234 244 261 265 264 278 266 260 263 314 315 307 317 337 352 19 38 32 41 44 46 54 55 53 56 56 55 55 55 57 60 60 58 58 59 57 57 58 61 64 66 66 64 62 59 58 55 51 47 38 29 18 10 2 349 337 330 331 335 335 338 338 331 326 319 306 293 274 257 244 231 229 228 231 237 241 255 271 276 286 306
235 233 232 233 233 233 233 230 235 246 243 243 250 240 229 236 240 243 251 250 246 249 249 250 257 289 313 309 314 328 331 352 13 12 24 34 36 46 53 50 51 55 53 53 54 54 57 60 58 56 54 52 51 49 49 53 60 62 59 54 45 37 30 18 9 360 352 346 341 337 331 326 323 324 325 324 327 326 319 312 306 300 287 261 247 238 227 230 236 243 248 251 256 262 270 282 299
238 236 234 234 233 233 235 232 230 240 241 239 244 236 236 246 247 245 246 244 231 225 238 254 267 280 302 306 303 304 317 325 342 355 4 10 23 33 42 44 46 52 50 48 51 55 55 56 57 55 54 50 45 38 31 27 30 36 34 20 2 346 338 334 330 327 326 324 321 320 319 320 320 318 317 317 319 315 308 300 293 288 280 262 245 238 234 236 246 259 266 265 265 267 273 285 304
239 238 238 237 235 232 233 233 232 237 239 232 222 217 230 242 246 245 245 247 234 224 238 257 270 271 278 284 275 291 308 307 317 338 351 351 357 9 15 14 29 45 45 42 41 49 51 50 51 49 50 49 43 33 15 357 339 327 317 310 311 313 315 317 318 321 325 324 323 322 320 319 317 315 312 312 312 309 303 295 287 282 277 264 249 248 252 252 253 265 273 273 274 275 279 289 308
239 238 239 239 237 235 232 231 231 236 238 233 225 223 233 240 242 245 246 252 249 240 244 258 264 260 263 261 251 280 303 298 299 322 341 338 335 342 349 346 318 343 29 32 25 26 34 37 35 31 32 35 35 26 7 349 335 319 307 301 297 301 305 309 314 317 320 323 321 318 317 317 315 312 310 309 308 307 300 292 286 279 274 267 259 259 264 265 264 269 272 273 279 281 281 292 302
239 237 239 241 240 238 236 232 231 237 239 236 234 233 239 242 243 246 247 252 253 247 246 252 254 254 261 258 249 263 289 294 292 311 331 327 321 326 331 334 311 276 303 353 355 350 346 352 359 356 353 355 0 359 348 335 333 332 327 319 311 306 302 300 300 301 301 305 306 304 305 307 308 309 307 306 306 305 299 293 286 276 269 266 266 267 274 280 281 283 280 278 292 299 298 305 307
239 238 239 240 240 239 238 236 234 236 239 238 238 238 241 243 245 247 248 250 251 247 246 246 246 253 261 257 248 253 273 287 290 302 320 320 313 317 321 325 320 290 275 288 302 312 315 311 311 315 312 308 309 313 317 316 312 316 324 326 326 322 314 302 292 289 289 292 295 295 298 303 308 309 306 305 304 303 298 294 286 275 266 261 263 269 277 285 290 295 298 301 311 314 319 319 318
239 238 239 239 239 239 238 238 236 237 239 239 240 242 244 245 246 247 248 250 252 251 249 245 246 254 258 255 250 256 270 279 285 295 309 314 310 312 315 313 314 306 283 274 278 284 293 298 295 296 300 297 294 294 297 299 299 300 304 307 309 311 313 310 302 292 285 286 288 289 296 302 306 306 304 304 305 301 296 291 284 273 265 259 260 265 275 283 287 292 309 333 329 333 340 330 327
238 237 238 238 239 239 238 238 238 239 241 240 241 242 245 247 248 249 248 249 252 253 252 250 251 255 256 254 255 262 270 274 276 286 299 305 306 309 308 304 304 306 296 282 278 276 276 288 294 290 291 292 291 293 293 294 293 291 296 301 300 299 301 305 308 304 289 283 283 284 291 297 299 301 303 305 305 301 295 289 281 272 264 259 261 266 276 279 271 244 204 153 7 347 347 333 327
237 236 237 236 237 237 238 238 239 240 241 241 241 242 245 248 249 250 250 250 251 252 252 252 253 255 255 254 256 263 266 267 272 281 292 297 300 302 299 297 299 302 300 291 284 279 274 274 286 289 283 283 283 285 288 289 291 290 293 300 302 299 298 298 302 305 295 282 279 280 286 289 291 297 301 308 313 309 301 293 285 273 254 255 264 268 263 243 216 215 212 207 248 319 356 358 329
236 235 236 236 236 236 237 238 239 240 241 241 242 243 245 247 249 250 250 250 251 252 253 254 254 255 256 255 257 260 262 267 273 280 287 291 294 295 293 291 294 296 297 291 283 283 280 272 274 282 281 281 280 282 283 282 285 288 289 295 306 305 301 298 296 299 295 280 277 279 281 280 284 292 297 316 325 316 307 299 286 247 219 231 239 234 235 232 229 258 303 307 332 358 2 6 327
238 235 236 236 236 236 236 238 239 240 241 242 242 243 245 247 249 250 251 251 252 253 253 254 255 256 257 257 257 259 263 268 273 279 283 285 286 286 286 286 287 287 287 288 282 280 282 274 270 277 285 290 291 290 285 282 282 284 287 292 304 307 302 298 294 294 290 279 277 278 275 271 278 282 270 299 310 298 292 281 187 165 196 212 223 234 250 250 244 316 325 276 297 25 342 360 312
244 239 237 238 237 236 236 237 238 239 240 242 243 244 245 247 249 250 251 251 252 253 254 254 255 256 256 256 257 258 261 265 269 274 278 279 279 278 279 278 277 277 278 281 280 278 279 274 270 275 285 294 299 295 288 286 285 285 291 297 301 303 303 300 296 292 286 279 278 276 270 268 274 269 260 279 279 262 256 179 148 158 199 210 218 228 226 221 220 223 238 255 267 249 259 305 291
248 244 241 241 241 239 238 237 238 239 240 241 243 244 245 247 248 249 251 251 251 252 253 254 254 255 255 255 256 257 259 263 266 269 272 274 275 276 277 275 274 276 279 279 278 277 277 274 273 275 280 291 299 300 295 291 289 291 296 298 296 298 302 301 295 289 284 281 278 273 267 268 268 264 263 260 246 245 235 195 183 190 210 217 214 211 207 225 241 245 253 264 271 261 267 292 293
251 247 244 243 243 242 241 239 239 239 240 241 242 243 245 246 247 248 249 249 248 249 251 253 254 255 255 256 256 257 260 263 265 268 270 271 272 273 273 273 274 278 279 279 278 275 273 271 270 271 274 286 297 303 303 298 292 293 292 292 293 296 298 295 288 283 280 279 276 269 266 266 261 259 260 248 242 246 227 215 214 210 222 230 226 224 224 238 253 258 258 260 266 268 276 287 285
255 253 249 246 244 244 243 242 241 241 241 242 242 243 244 246 246 245 246 247 247 247 249 251 253 254 256 257 258 259 260 262 263 263 264 265 265 266 266 267 270 272 272 271 271 269 268 266 264 265 269 280 291 297 300 296 290 288 288 289 292 291 290 284 277 275 276 277 276 269 266 262 253 253 255 249 252 246 234 235 232 230 238 247 244 240 241 246 251 250 253 256 263 274 283 283 279
260 259 255 251 247 246 244 245 244 243 243 243 243 244 245 246 246 244 243 245 246 246 247 249 251 253 254 256 257 258 258 258 257 256 258 261 262 264 266 269 270 270 267 262 261 262 262 262 262 263 268 277 285 290 295 292 284 287 289 289 288 284 279 275 274 278 281 281 280 275 270 260 250 252 255 254 259 251 249 251 246 252 261 264 258 247 246 252 252 253 256 259 265 274 281 283 283
261 261 260 256 254 252 247 245 246 245 246 246 246 245 245 246 247 245 243 243 244 245 245 246 248 250 252 253 254 254 254 255 256 258 259 261 263 265 267 268 268 267 265 260 259 258 258 261 262 264 270 278 285 291 294 288 275 282 289 283 277 271 267 268 275 285 288 285 282 278 274 262 251 254 257 257 261 255 253 252 253 267 261 254 252 250 253 254 255 258 261 265 268 272 278 281 281
260 261 262 260 259 260 255 249 247 246 245 245 245 244 243 243 246 245 243 243 243 244 245 246 246 248 250 250 251 252 253 255 257 258 257 258 260 260 260 260 260 261 260 259 258 258 260 262 264 268 274 282 290 294 291 281 282 289 291 285 276 268 265 267 273 284 291 288 284 284 284 273 260 259 261 263 265 259 254 254 254 258 250 242 242 249 254 253 256 262 267 270 271 274 278 280 278
262 260 262 262 257 262 267 262 254 250 247 242 240 241 240 240 243 244 244 243 243 244 244 246 247 248 249 249 251 253 255 255 255 255 256 259 259 257 255 253 253 255 255 254 255 258 262 266 271 276 281 287 292 291 279 283 293 292 289 286 280 274 271 270 275 280 285 289 289 284 280 273 265 263 265 266 265 257 252 256 259 257 251 247 246 247 250 249 254 262 267 269 275 279 281 282 281
270 262 257 260 257 259 275 273 262 255 253 247 242 240 240 240 243 244 243 243 243 243 244 245 246 248 249 250 252 254 253 253 254 257 258 257 254 253 252 249 249 254 255 251 254 260 263 269 275 278 282 286 282 271 272 285 289 284 281 279 277 276 273 273 276 276 277 285 289 278 266 260 259 261 264 266 264 257 251 254 260 263 260 258 255 253 254 255 258 264 266 271 279 282 285 288 285
275 269 259 257 255 244 251 263 264 258 256 254 249 244 242 243 245 245 245 244 243 243 244 244 245 247 249 250 251 251 250 251 253 253 252 249 248 248 249 249 250 252 254 252 255 264 267 268 271 274 276 272 263 265 276 284 285 285 286 287 285 278 274 274 277 280 282 285 286 282 273 263 258 261 264 267 267 264 260 258 260 265 266 266 264 262 263 264 266 266 266 272 277 278 281 283 282
274 272 266 258 254 242 235 250 259 258 256 256 254 250 246 246 247 248 248 247 247 245 245 245 246 246 248 248 249 249 248 248 247 245 244 245 247 247 247 249 250 248 251 253 256 262 265 262 260 268 271 263 261 273 280 286 288 288 291 293 292 288 285 285 287 290 288 283 281 282 277 269 265 264 263 264 266 267 268 266 263 264 265 267 268 267 267 268 268 267 266 267 269 274 279 279 281
273 272 271 264 258 252 246 249 254 256 255 254 254 252 249 249 249 249 250 250 249 248 247 247 247 247 247 246 246 248 246 244 244 243 244 247 248 247 246 247 249 249 252 257 258 260 262 258 253 262 267 265 269 275 279 286 288 287 290 289 289 294 295 293 291 288 284 280 281 282 277 273 272 269 264 262 263 264 266 267 266 265 265 266 267 267 266 267 268 267 266 265 266 272 276 278 283
273 272 273 271 265 261 258 254 252 252 252 252 253 251 249 249 249 249 251 252 252 251 249 248 248 247 246 244 243 245 245 245 245 244 245 246 246 245 244 244 245 247 254 261 265 268 269 265 261 262 266 268 272 275 279 284 284 283 284 283 284 286 286 286 285 282 278 277 279 279 275 273 272 269 266 264 264 265 265 267 267 267 266 265 265 266 266 266 267 268 267 267 267 268 271 275 281
273 274 274 275 275 276 276 271 262 254 252 252 250 249 250 249 249 249 250 250 251 251 249 248 247 246 245 244 243 243 243 244 244 245 245 244 242 240 241 242 240 241 250 262 271 275 273 273 273 272 271 273 277 280 282 280 276 277 277 277 279 278 279 283 284 281 277 276 277 277 275 272 271 270 268 267 267 267 267 267 267 267 267 266 266 266 267 267 266 267 267 267 267 267 269 272 275
276 275 276 278 277 278 284 280 274 265 257 258 254 249 250 249 247 246 247 247 246 246 246 246 245 244 244 244 243 241 240 240 240 241 242 242 241 240 239 238 233 230 237 243 250 260 263 268 277 283 286 285 284 284 284 279 273 276 279 280 280 279 280 283 284 280 273 274 277 278 277 275 274 273 271 270 269 268 268 268 268 268 268 268 268 269 269 269 269 268 269 269 270 270 271 272 272
278 278 280 279 270 259 261 267 274 271 259 262 263 257 253 251 248 243 242 242 242 241 241 242 242 242 242 241 239 238 237 236 236 236 237 238 239 239 238 235 224 216 222 227 228 236 245 255 267 279 287 284 279 278 279 279 279 284 288 286 284 281 280 280 279 276 275 278 279 280 279 278 276 275 273 272 271 270 269 269 269 270 271 271 271 271 271 271 271 271 271 272 273 273 273 274 274
282 281 282 280 275 262 253 260 271 273 269 269 264 259 257 251 246 242 238 236 234 234 235 237 239 239 238 237 236 234 231 231 231 231 232 232 234 235 235 234 225 214 217 225 228 231 235 241 251 258 264 264 264 270 277 278 282 291 294 291 288 286 283 281 278 278 280 281 281 280 279 278 276 275 273 272 272 272 271 271 271 272 273 273 273 273 273 272 272 272 273 273 274 274 274 274 274
285 282 280 281 281 276 271 271 272 279 294 287 271 259 259 261 256 246 238 235 231 228 228 229 233 234 233 233 233 231 227 225 225 225 227 227 229 230 230 231 227 219 221 227 230 232 232 237 250 257 263 264 265 276 286 285 286 292 293 291 291 290 288 286 284 283 283 283 283 281 280 278 277 275 273 273 272 272 272 272 272 273 274 275 276 276 275 274 273 273 274 275 276 275 275 274 274
282 279 280 282 283 283 282 280 276 274 268 268 267 258 254 267 271 256 241 234 231 225 222 220 223 227 228 228 228 230 229 226 224 223 224 225 226 227 227 225 225 224 225 228 230 231 232 238 253 264 271 274 277 284 292 293 292 291 289 288 289 290 290 289 288 287 286 285 284 282 280 279 278 277 275 274 273 273 273 272 273 274 275 276 278 278 278 276 275 275 276 277 277 277 277 276 276
278 276 279 280 281 282 281 281 278 265 236 249 259 257 246 239 269 265 252 239 233 225 219 217 218 221 222 225 225 226 229 231 231 229 228 228 228 230 231 229 228 228 228 229 230 232 235 242 254 264 270 273 277 284 290 293 292 288 286 286 287 288 288 288 287 286 285 284 282 281 279 278 277 276 276 275 274 273 273 273 273 274 275 277 278 279 280 280 279 279 279 279 279 279 278 278 277
276 276 278 280 280 280 281 282 276 271 265 262 261 254 244 208 257 265 255 242 236 230 221 214 213 216 217 218 219 220 224 230 234 236 235 233 234 235 237 238 236 236 235 235 235 238 242 249 257 264 269 271 273 277 282 286 287 287 288 289 289 289 288 287 287 286 285 284 284 283 281 280 278 277 276 275 275 275 275 275 275 276 278 280 281 283 284 284 284 283 282 282 281 281 280 280 279
276 277 278 280 285 285 284 283 279 280 280 270 264 258 245 188 247 267 264 249 238 232 227 217 212 212 214 214 213 214 218 224 229 235 237 236 238 240 242 245 246 245 246 245 245 247 248 252 256 258 265 273 277 277 277 278 280 284 289 291 290 290 289 289 289 289 289 290 289 288 286 284 282 279 278 277 277 278 278 279 279 280 282 284 286 287 287 287 287 286 285 284 283 283 282 281 279
275 277 277 282 289 288 285 284 283 288 286 278 271 264 243 205 226 255 268 255 240 232 229 223 217 214 212 213 213 215 217 222 228 231 236 238 239 241 244 246 248 249 249 248 248 248 247 248 248 247 252 265 275 279 281 282 284 287 289 290 291 291 291 292 293 295 297 297 295 292 289 287 284 282 280 279 279 280 281 283 284 284 285 287 289 289 289 288 288 287 287 286 286 285 284 283 282
273 274 274 278 279 271 279 287 288 290 292 287 280 273 254 237 240 246 258 254 243 235 230 225 225 225 219 213 214 218 220 225 231 232 234 237 238 239 240 241 243 243 243 245 244 244 244 243 242 242 243 249 259 268 276 283 289 292 294 295 296 297 299 300 300 301 300 297 295 293 291 288 285 283 281 281 281 282 284 286 287 288 288 289 289 289 288 288 288 289 289 289 290 289 289 288 286
271 272 272 275 270 264 273 283 285 282 268 258 269 268 232 223 245 249 253 254 246 239 234 224 221 227 225 217 216 220 221 226 232 234 234 235 236 237 236 237 237 237 238 239 241 242 243 242 242 242 242 245 249 257 268 278 284 289 295 299 299 299 301 301 299 297 295 293 293 293 293 291 289 286 283 282 282 283 286 288 289 289 289 289 289 289 289 290 290 291 291 292 292 292 290 289 287
266 270 273 274 274 275 278 279 277 272 259 256 265 269 239 219 234 242 246 251 249 244 239 229 222 224 225 220 219 221 222 226 230 233 236 236 237 238 238 238 237 237 238 238 240 241 240 241 242 243 246 249 253 261 269 273 278 285 295 302 302 299 299 299 297 294 294 296 298 299 301 300 298 294 290 287 286 287 289 289 290 290 290 290 291 291 292 292 293 292 292 291 291 290 289 288 286
265 270 273 273 273 275 280 283 282 278 273 273 275 275 259 241 244 247 249 250 249 248 246 241 235 231 230 226 225 225 225 227 229 230 233 236 238 238 239 240 239 238 239 239 240 241 242 243 244 247 251 253 260 266 266 266 273 287 300 313 316 311 307 306 303 303 305 309 313 316 318 317 312 306 301 297 294 293 292 292 293 293 294 294 295 295 295 295 295 294 292 290 288 286 285 285 284
266 269 270 270 270 270 272 273 276 280 281 282 281 277 272 269 265 262 261 257 253 252 251 249 246 242 240 235 232 231 229 229 230 230 232 235 237 238 238 239 239 239 241 242 244 245 248 251 253 256 258 259 264 263 256 256 263 279 312 337 334 324 319 318 317 321 327 333 337 337 335 331 326 320 313 307 302 299 299 299 299 299 300 301 302 303 303 301 299 297 295 293 290 287 285 284 283
264 267 269 269 268 271 271 267 270 279 282 280 279 280 291 290 284 278 274 269 262 259 261 264 258 248 245 244 240 238 237 234 233 233 233 234 237 239 240 240 240 242 242 244 247 250 254 257 260 262 262 262 260 251 247 249 241 248 307 341 339 333 332 333 334 338 345 350 353 353 352 346 337 329 321 315 311 309 309 310 311 314 320 325 327 325 323 318 313 308 304 301 297 294 291 289 287
260 263 266 269 271 273 272 272 277 280 276 272 274 275 266 273 279 281 281 277 270 264 274 287 276 260 249 248 247 244 244 242 240 239 237 237 238 238 239 240 240 241 243 246 249 253 256 258 260 261 260 258 251 241 245 245 234 245 276 294 318 334 340 343 345 348 354 358 357 356 356 355 350 344 339 340 345 347 352 360 6 10 10 6 359 352 346 339 332 324 318 313 308 303 299 295 292
258 261 264 267 271 273 273 274 274 273 270 268 272 281 283 281 288 289 283 278 277 269 248 275 279 270 258 251 249 247 246 245 244 244 243 241 241 240 239 239 240 241 243 246 250 253 256 257 258 258 257 255 245 241 251 249 237 248 262 266 292 314 325 330 333 337 346 352 354 353 352 352 354 358 12 32 30 24 22 21 18 14 9 4 358 352 347 341 336 331 326 321 316 311 306 301 298
255 258 262 264 265 267 270 269 264 260 263 264 267 281 292 292 292 288 281 278 280 277 247 267 272 268 260 252 248 247 245 245 244 245 245 244 244 243 241 240 241 242 243 246 249 251 254 255 256 255 254 252 245 248 266 262 244 250 261 266 284 295 305 314 317 320 327 334 341 346 348 346 342 348 17 26 12 3 358 353 349 346 345 346 345 342 339 335 332 329 326 322 318 315 310 306 303
250 254 259 262 263 262 260 259 256 251 251 256 262 272 267 226 240 267 275 279 282 284 273 273 272 270 266 256 249 246 244 244 245 246 247 246 245 244 243 243 243 244 245 246 247 249 251 251 250 249 248 250 253 264 280 272 246 244 268 281 289 291 293 302 310 316 323 331 335 339 345 344 333 323 328 341 343 342 341 339 335 333 333 334 334 333 330 327 326 324 321 319 317 315 312 309 306
249 252 256 259 261 259 255 250 249 246 243 248 254 257 254 238 238 257 271 277 281 288 282 271 273 275 275 267 256 250 246 243 243 245 247 246 244 243 242 242 242 243 243 243 243 244 245 244 242 238 238 251 268 275 281 271 245 242 265 285 293 293 292 296 305 314 322 330 333 333 338 339 330 318 310 313 320 325 328 329 328 328 328 328 327 325 323 321 320 318 316 315 313 312 311 308 305